Location: Baix
(44.7118°N, 4.7648°E)
Time: 23:26:26
(UTC+00:00)

Vanguard 3 - Pass Details

Date: 01 December 2020
Orbit: 508 x 3262 km, 33.3° (Epoch: 19 January)

Event Time Altitude Azimuth Distance (km) Brightness Sun altitude
Rises 00:08:13 0° 251° (WSW) 2,907 - -65.8°
Reaches altitude 10° 00:11:07 10° 227° (SW) 2,249 - -65.6°
Maximum altitude 00:14:09 15° 191° (S) 2,190 - -65.4°
Drops below altitude 10° 00:17:59 10° 157° (SSE) 2,991 - -65.1°
Sets 00:22:54 0° 138° (SE) 4,545 - -64.7°
